Vorticity
11 10 9 9 8 7 9 8 7 8 6 8 9 8 7 7 7 4 6 9 8 5 5 6 7 8 8 5 4 14 10 2 3 -0 2 1 2 1 -2 0 1 3 1 1 3 4 6 6 3 3 5 6 6 4 3 5 10 13 14 14 11 9 8 7 8 7 6 6 6 6 7 7 8 8 8 7 6 7 8 8 9 10 11 11 10 8 7 8 9 13 13 13 13 7 4 8 12
11 11 10 10 10 8 8 7 8 8 8 10 8 6 6 6 8 7 7 8 7 6 6 6 8 7 6 4 -0 8 10 3 2 -2 -1 -1 1 2 1 2 2 4 3 3 4 5 6 6 4 3 4 5 4 3 5 8 12 13 14 13 10 9 8 9 9 8 8 9 9 9 9 9 9 8 8 7 7 8 9 10 10 11 11 10 10 9 9 10 12 12 11 9 9 8 7 7 8
13 12 10 10 11 10 8 6 7 7 8 10 8 7 7 7 9 8 9 9 7 7 7 7 8 6 4 4 -0 1 3 2 2 -1 -2 -2 0 3 5 5 5 5 4 4 3 4 3 0 -1 1 6 10 10 12 14 14 13 13 14 12 9 9 9 9 9 10 11 10 10 9 8 8 7 7 8 8 9 10 10 11 11 11 11 10 10 10 9 10 11 11 12 12 11 10 9 8 7
13 13 11 10 10 12 11 7 7 6 7 9 7 8 8 9 10 8 10 9 8 8 8 9 7 6 7 6 4 4 3 1 1 2 2 3 4 4 5 6 7 6 3 3 2 1 -0 -4 -2 5 13 16 18 20 18 16 15 14 13 12 10 9 9 8 8 8 7 6 6 6 7 7 8 9 10 11 11 11 11 12 11 11 11 10 10 9 9 11 12 12 14 14 12 11 11 12 11
15 13 12 11 11 13 12 9 9 7 7 8 8 9 9 10 10 8 7 5 6 6 7 10 8 9 12 9 7 6 4 4 4 4 5 5 4 5 7 9 8 6 5 4 2 1 -2 -1 6 13 15 16 18 18 16 16 15 14 12 11 10 9 8 7 6 5 5 5 7 8 10 10 11 11 11 11 12 12 12 12 11 11 10 9 9 9 10 11 11 12 13 14 14 12 12 13 14
17 14 12 11 11 12 12 9 9 8 8 8 9 9 8 9 7 6 5 5 6 4 5 8 7 8 8 5 6 5 4 5 5 4 3 3 4 7 8 8 8 6 6 3 1 0 -2 5 14 17 17 16 15 14 13 13 12 12 11 10 10 9 8 6 6 7 8 9 9 10 10 11 12 12 12 12 12 12 11 11 9 9 8 8 8 7 6 8 8 8 9 11 11 12 14 13 12
18 16 14 12 11 11 9 9 8 8 9 7 8 8 7 7 6 6 7 8 8 7 7 7 7 8 6 4 3 3 5 6 5 3 2 3 5 6 5 4 5 4 5 4 3 1 2 12 19 19 17 14 11 10 10 10 10 11 9 9 9 8 8 8 9 10 10 10 10 11 12 13 12 13 13 12 11 10 9 8 8 7 7 7 6 6 6 8 8 8 10 9 8 9 12 12 12
16 14 13 12 10 12 8 7 8 8 9 7 7 6 6 7 7 7 6 7 10 10 8 7 7 7 5 5 6 4 6 7 5 4 3 4 4 4 3 2 3 6 12 14 12 7 9 16 17 16 14 12 10 9 10 11 10 9 8 8 8 9 10 9 9 10 10 11 12 12 12 12 11 11 11 10 9 8 8 8 8 8 8 7 6 8 8 9 8 9 11 9 8 7 8 9 11
13 12 12 12 9 12 10 6 9 9 8 7 7 6 6 7 7 7 7 8 9 6 2 2 8 14 9 5 6 5 5 7 6 5 4 5 5 7 8 9 10 12 15 15 14 12 14 15 12 11 10 10 10 10 10 10 10 9 9 9 9 9 8 8 9 10 11 11 11 10 10 10 9 8 7 7 7 7 8 8 9 9 9 9 8 8 8 7 5 6 8 8 7 4 8 9 11
12 11 10 13 10 12 12 8 8 10 8 6 7 7 6 7 8 8 9 7 4 1 -2 -2 5 17 17 7 4 4 5 6 6 6 7 8 10 11 12 14 15 13 11 11 12 13 13 11 9 7 6 7 9 11 11 9 9 9 9 8 8 7 8 9 9 10 9 9 8 9 8 7 6 6 6 7 7 7 8 8 9 9 9 8 7 5 4 5 4 5 5 7 8 5 9 10 11
10 11 11 12 10 11 13 10 7 9 9 7 6 7 7 8 9 9 7 6 4 1 -3 -3 2 8 12 7 3 5 8 9 9 10 11 13 11 9 9 10 9 9 10 11 12 12 12 9 7 7 7 9 9 9 8 8 8 8 7 7 7 8 9 9 9 8 8 8 7 7 7 6 5 6 8 8 8 7 8 8 8 8 7 6 5 4 3 4 4 6 5 8 10 5 5 7 8
8 9 9 11 10 9 10 10 8 7 8 7 6 6 8 8 9 8 5 2 -2 -4 -3 2 5 6 7 8 8 9 10 12 11 11 11 10 9 9 9 8 8 9 10 10 10 9 10 9 8 9 10 8 6 6 6 7 7 7 7 7 9 9 8 8 8 8 8 7 7 6 6 5 6 7 9 9 8 7 7 8 8 7 6 5 5 5 4 4 4 5 5 7 8 6 5 8 9
10 8 8 10 9 8 9 8 7 7 9 9 7 8 8 9 9 7 5 1 -3 -3 1 5 8 8 10 13 13 11 9 10 10 9 8 8 9 10 9 9 9 9 8 7 7 7 10 13 13 12 10 7 7 8 8 8 7 8 9 10 9 8 8 8 8 7 7 7 7 6 6 6 7 9 10 9 7 7 8 9 9 8 7 6 6 5 5 4 4 5 6 5 7 10 11 12 10
10 10 6 9 9 7 7 8 8 8 10 8 8 11 10 8 6 5 3 -1 -3 -2 1 5 8 9 12 14 12 9 8 9 8 8 8 7 7 6 7 8 8 7 9 11 13 15 16 15 12 11 9 9 10 9 8 8 8 9 10 9 8 8 8 8 7 7 7 7 7 7 6 7 8 9 10 9 7 8 8 9 9 8 7 7 7 7 6 5 4 6 7 7 8 11 13 15 13
9 12 5 6 7 8 7 7 9 7 7 6 6 7 6 4 1 2 1 1 4 6 9 11 11 11 12 11 11 13 14 13 10 8 7 7 6 6 8 9 10 14 17 17 14 12 10 5 4 6 8 9 9 8 9 9 9 9 8 7 8 8 7 7 7 8 9 8 7 7 7 7 9 10 10 9 8 8 9 8 7 6 7 7 7 7 7 6 6 8 9 7 7 9 13 16 18
9 11 5 6 5 10 10 7 7 5 4 5 4 3 2 2 3 4 6 13 19 19 17 17 15 13 10 8 11 17 21 18 13 10 9 9 9 10 11 11 14 14 11 10 8 7 7 7 7 8 9 8 8 9 10 9 8 7 7 7 8 7 5 5 6 8 10 10 9 7 7 8 10 10 10 10 9 9 8 7 7 7 8 8 8 7 8 9 8 10 8 6 6 8 12 12 15
12 10 9 11 8 10 12 8 5 5 5 5 6 7 9 10 10 12 14 17 21 20 17 16 13 7 6 7 11 15 17 17 14 13 12 12 12 13 13 14 15 12 9 8 9 11 11 11 11 9 9 8 8 8 8 7 7 6 6 7 7 5 3 4 5 6 9 10 9 8 7 7 9 10 10 10 9 7 6 6 7 7 7 8 8 8 10 12 9 7 6 6 6 7 10 11 10
13 18 16 14 11 8 9 9 5 4 5 7 11 12 15 15 13 15 16 15 15 13 11 9 8 6 7 10 11 11 11 12 12 12 13 13 14 14 13 13 13 11 10 9 9 11 10 10 10 9 9 8 8 7 7 7 7 6 6 6 6 5 3 3 3 5 8 9 8 7 7 7 8 9 8 8 8 6 5 6 5 6 6 6 6 7 9 12 9 7 7 5 6 8 10 10 8
5 16 16 11 11 6 6 8 6 3 2 7 15 15 16 16 15 14 11 10 9 8 8 9 11 13 14 15 15 13 13 13 13 14 16 16 16 14 12 11 10 9 8 7 5 5 3 4 6 6 5 5 5 6 7 7 7 7 7 7 6 4 3 3 3 5 7 9 8 7 7 7 8 8 8 8 6 4 4 5 5 5 5 5 5 6 7 9 10 8 8 7 7 9 9 10 9
-3 7 11 7 7 4 4 5 6 6 7 13 17 14 12 12 11 11 9 9 11 13 16 16 18 18 17 17 17 15 14 15 15 15 15 14 14 13 14 15 15 15 15 13 11 9 6 6 7 7 7 7 6 7 8 9 9 8 7 7 6 5 4 3 4 5 7 9 9 8 8 8 8 7 7 7 5 3 4 5 5 6 5 4 4 5 7 8 10 10 8 8 7 8 9 10 9
5 8 6 6 5 6 8 8 13 15 14 13 10 8 9 11 12 13 14 16 17 18 18 16 15 14 13 12 12 11 11 11 10 9 9 9 9 10 11 13 15 16 16 16 16 16 14 13 13 12 11 9 8 8 8 9 9 10 9 8 6 5 5 4 4 5 7 9 10 9 9 9 9 8 6 7 5 3 5 6 5 5 4 4 4 4 6 8 10 11 10 8 6 6 8 9 10
22 14 6 10 12 14 16 16 17 13 10 8 9 13 14 15 17 17 18 18 17 15 12 10 9 8 8 8 8 8 7 7 7 7 7 7 7 8 9 11 13 14 15 15 15 16 17 18 17 16 14 11 9 9 9 8 8 8 10 10 9 6 6 5 4 6 9 9 9 9 9 9 9 7 5 6 5 3 4 6 4 3 3 3 4 4 5 8 9 10 10 9 8 6 6 7 9
22 18 15 18 17 15 15 12 8 6 9 11 12 15 13 14 15 13 12 11 11 9 7 7 7 7 7 7 7 8 8 8 8 8 8 8 8 8 9 10 12 14 15 16 16 16 16 17 18 18 17 16 15 12 9 9 9 8 8 10 12 11 10 8 5 8 10 10 10 9 8 7 7 5 4 5 5 4 4 5 4 3 3 3 4 4 4 7 10 10 9 10 9 7 6 4 5
12 16 15 14 12 10 10 8 8 11 13 12 10 10 10 12 11 9 9 8 8 7 7 7 7 7 7 8 9 9 9 9 10 10 10 10 10 9 9 10 11 13 15 17 17 16 15 15 17 19 20 22 24 24 17 11 10 10 8 7 9 12 13 10 8 9 10 9 8 8 8 7 7 5 5 6 4 4 5 5 5 4 4 4 4 5 5 6 10 11 9 9 10 8 6 5 4
8 11 12 12 12 12 13 13 14 13 11 10 9 9 10 10 9 8 10 10 9 7 7 7 6 6 6 7 7 8 8 9 10 11 11 11 10 10 10 11 12 14 16 17 17 16 15 15 17 19 21 22 24 30 30 22 16 12 11 9 7 10 10 10 9 9 10 9 8 8 7 7 7 6 7 8 5 4 6 6 5 4 5 5 5 5 5 6 9 12 11 10 10 9 7 6 6
9 11 12 12 12 12 12 13 12 10 10 10 9 9 10 8 8 8 8 8 8 8 6 6 6 5 5 5 6 7 8 9 9 9 10 10 10 10 10 10 11 13 15 16 17 18 16 15 16 17 20 18 17 26 31 30 24 15 14 13 11 12 12 12 11 10 9 8 8 8 7 7 7 7 8 9 7 6 6 6 4 4 5 6 5 5 7 6 9 12 12 10 11 9 7 7 7
11 12 13 12 12 13 13 14 13 11 12 11 9 10 10 7 7 7 6 6 6 6 5 5 5 5 5 4 5 6 7 7 8 8 8 9 10 9 9 9 9 10 11 13 16 19 19 16 12 11 16 16 17 22 24 26 26 18 15 15 14 15 14 11 12 13 12 9 8 8 6 7 8 8 7 8 8 7 6 6 4 5 8 7 6 7 8 7 9 12 11 10 10 9 7 8 8
12 13 13 13 12 12 13 13 11 9 9 7 5 8 8 6 6 5 5 5 5 6 6 6 6 6 5 4 5 5 5 6 7 7 8 9 10 10 10 10 10 10 9 11 13 17 21 20 14 11 14 16 17 18 18 18 19 17 16 16 16 16 13 10 10 12 14 13 9 7 6 5 8 9 8 8 8 8 8 8 7 8 9 9 8 9 9 9 9 12 12 9 9 9 8 7 6
11 11 11 11 9 8 8 8 7 5 4 3 3 5 6 5 5 5 5 6 6 6 6 7 7 6 6 5 5 4 5 6 6 7 8 10 10 10 10 9 9 10 10 10 12 15 19 21 20 16 14 14 16 16 16 15 14 14 15 15 16 15 13 11 10 10 12 13 12 9 7 6 8 10 10 9 8 8 9 8 8 8 8 9 10 11 12 11 10 12 12 9 9 9 6 5 5
9 10 9 8 7 5 5 4 4 4 4 3 3 4 5 5 5 6 6 6 6 6 6 7 7 6 6 5 5 5 5 6 6 7 8 9 9 9 9 9 8 9 10 10 12 14 15 17 21 21 18 15 16 16 16 18 17 15 14 14 14 14 13 12 12 11 10 10 11 10 9 7 8 9 9 9 7 7 7 7 8 7 6 7 9 12 12 12 11 12 12 10 10 8 5 5 7
7 7 6 6 5 5 5 4 4 3 5 5 5 6 6 6 7 6 6 7 7 7 6 6 6 6 6 5 5 5 6 6 7 7 7 7 7 8 8 7 7 8 9 9 10 12 14 16 19 22 21 17 16 17 16 19 23 21 18 16 15 14 12 12 12 12 10 9 9 10 9 8 8 9 9 9 8 7 8 8 8 7 6 5 7 10 12 13 11 11 12 11 9 7 6 8 9
5 5 6 5 5 7 7 6 6 5 5 5 6 6 6 8 8 7 7 7 7 7 7 7 6 6 5 5 5 6 6 7 7 6 6 6 6 6 6 6 7 7 7 8 8 10 12 15 17 21 23 20 18 18 16 17 21 22 19 15 14 13 12 12 12 12 13 12 12 12 11 10 10 11 10 10 10 8 8 9 9 9 8 6 6 8 12 13 11 10 12 11 7 5 7 9 9
7 7 8 7 5 6 7 7 6 5 5 5 4 4 5 7 7 7 7 7 8 8 8 8 7 7 6 6 5 5 6 7 7 7 6 6 6 6 6 6 6 7 7 7 7 8 11 13 15 19 22 22 19 19 18 15 15 16 16 14 13 12 12 12 11 11 12 12 12 12 12 12 11 12 12 11 11 10 9 9 10 10 10 9 7 9 13 13 11 10 11 9 6 5 7 9 10
7 8 8 7 6 5 5 4 4 3 4 3 3 2 3 4 5 6 6 7 9 10 10 10 9 8 6 6 6 5 5 7 7 7 6 5 6 5 5 5 5 6 6 6 7 8 9 11 13 16 19 21 20 18 16 14 14 14 15 15 14 13 12 12 11 10 10 10 10 10 11 11 11 11 11 11 11 11 10 10 10 11 12 11 9 10 14 14 11 11 10 7 5 6 8 11 13
4 5 6 6 4 4 3 2 2 2 3 2 3 3 2 2 3 5 7 8 8 10 11 11 10 9 7 6 6 5 5 6 7 7 6 5 5 4 4 4 4 5 5 5 6 6 7 8 10 12 15 18 20 19 15 12 12 12 13 14 14 13 12 13 13 12 12 12 12 12 12 12 12 12 12 11 11 12 12 11 11 11 12 11 9 11 14 13 12 12 9 5 5 7 10 13 16
2 1 4 5 3 3 3 1 1 2 3 3 4 5 5 4 3 5 8 9 8 8 10 11 12 10 8 8 6 5 6 6 7 7 6 5 4 4 3 3 3 4 5 4 4 4 5 7 7 8 10 13 17 20 20 16 12 10 9 9 9 10 12 14 14 14 14 14 14 14 14 13 14 14 14 13 12 12 13 13 14 13 13 11 8 10 13 12 11 12 8 5 6 8 10 11 12
1 -1 4 7 4 3 4 3 3 2 3 4 4 4 6 7 5 5 8 9 8 7 8 10 12 12 10 9 7 6 6 7 8 7 6 5 4 4 3 3 4 4 4 4 3 3 4 5 6 6 6 7 10 14 18 20 19 17 15 12 10 9 10 11 12 14 14 14 15 15 14 13 12 13 13 13 12 11 11 12 13 14 14 13 8 9 13 12 11 10 7 6 7 8 6 3 3
3 1 8 11 7 5 5 4 4 3 4 5 4 3 6 8 8 6 6 8 8 5 6 8 10 12 11 11 8 6 6 8 9 8 6 6 5 4 4 3 4 4 4 3 3 3 4 3 4 5 5 5 6 7 11 14 17 19 20 18 15 13 11 10 10 12 13 13 14 15 15 13 12 11 11 11 10 10 10 12 13 13 15 14 10 9 12 13 12 9 6 6 8 7 3 1 1
4 5 8 9 8 6 5 4 4 6 6 6 6 4 5 8 9 8 6 7 7 5 5 5 7 10 11 12 10 8 8 9 10 9 7 6 6 4 4 4 4 4 3 3 3 3 3 3 3 4 4 5 5 5 6 8 10 12 15 16 16 16 15 14 13 13 12 11 12 14 15 15 13 12 11 10 10 10 11 12 13 14 14 14 12 10 12 14 11 8 6 6 7 4 1 0 1
1 5 6 6 6 7 8 6 5 8 6 6 8 6 5 8 10 9 6 7 7 5 5 4 4 5 7 10 11 9 10 11 10 10 8 7 6 5 4 4 4 4 3 3 2 2 2 3 3 3 3 4 4 4 5 5 6 7 10 12 13 15 16 17 16 15 13 11 10 11 11 12 12 11 11 10 11 11 12 13 14 13 13 13 12 11 13 14 11 7 6 5 5 2 0 1 1
3 5 7 6 5 7 11 7 4 6 6 4 5 6 6 7 10 10 7 7 6 5 4 4 4 4 4 6 8 9 9 11 11 10 10 9 7 6 5 5 5 4 4 3 3 2 2 2 2 2 3 3 3 3 3 4 4 5 6 7 9 10 11 13 14 15 17 16 15 15 14 13 11 10 9 10 9 10 12 12 12 13 12 12 12 12 13 13 10 7 5 4 3 2 0 1 1
7 7 7 8 6 7 10 6 2 3 4 3 1 3 6 6 8 11 9 7 6 5 4 4 4 3 4 4 5 7 7 9 11 11 11 10 9 9 8 6 6 6 5 4 4 3 2 2 2 3 2 3 3 3 3 3 3 3 4 4 5 5 6 7 10 13 15 17 18 19 19 18 17 14 12 11 9 9 11 11 10 11 12 11 12 13 14 13 10 7 6 5 4 3 2 2 2
3 4 5 8 9 9 8 5 4 2 2 5 1 1 6 5 4 11 13 8 5 5 4 4 5 3 3 4 4 5 5 6 9 10 10 10 10 10 10 9 8 8 6 5 5 4 4 3 3 3 3 3 3 2 3 3 3 3 4 4 4 5 5 5 6 7 8 10 12 13 16 17 18 19 16 15 15 13 11 10 9 9 10 11 11 12 14 13 10 7 6 5 4 4 4 3 3
0 2 3 5 7 9 8 6 6 2 1 4 0 -0 6 5 2 8 15 11 4 5 5 4 4 4 3 3 3 3 4 5 6 8 9 9 9 10 11 11 10 10 9 8 7 6 5 4 4 4 3 3 3 3 3 2 2 3 3 3 3 4 4 5 5 5 5 6 6 7 8 9 12 15 16 16 18 19 17 15 13 11 9 9 9 10 12 14 13 11 8 6 5 5 4 4 4
4 6 5 4 5 7 8 8 9 5 2 3 0 -1 4 4 1 3 12 14 6 3 5 5 5 6 4 2 3 2 3 4 4 6 7 7 8 8 9 10 11 11 11 12 11 10 8 7 6 5 4 4 3 4 3 3 3 3 2 3 3 3 3 3 4 4 4 4 4 4 5 5 6 8 10 11 12 15 17 19 19 18 15 13 12 11 10 11 12 11 10 9 8 7 6 6 6
7 7 6 7 6 6 8 9 9 8 5 3 1 -1 1 2 0 1 7 12 8 3 3 5 5 6 6 4 3 2 2 2 3 4 5 6 7 7 7 7 8 9 9 10 11 12 12 10 10 8 7 6 5 4 4 3 3 3 3 3 3 3 2 2 2 3 3 3 3 3 3 4 4 5 6 6 7 8 9 12 14 16 18 20 20 19 18 17 16 16 15 15 14 14 14 14 14
7 5 5 10 9 4 6 9 9 8 6 4 2 1 3 2 -1 1 5 7 8 6 3 4 6 6 6 5 4 3 2 1 2 2 2 4 5 6 7 7 7 7 7 7 8 9 10 11 11 11 10 9 8 7 6 5 4 3 3 3 3 3 3 2 2 2 2 2 3 3 3 3 4 4 4 4 5 5 5 5 6 8 9 12 14 16 18 20 22 22 23 23 23 24 24 25 25
6 3 5 10 8 3 3 9 11 8 6 5 2 -0 3 4 1 4 7 5 5 6 3 2 5 6 5 6 6 5 4 2 2 2 2 2 3 4 6 6 6 6 7 7 7 8 7 8 9 10 11 11 10 10 9 9 8 6 5 4 4 4 4 3 2 2 2 1 1 2 2 2 2 3 3 4 4 4 4 3 4 5 4 4 5 6 8 9 11 12 13 14 15 16 17 17 18
6 6 7 9 7 5 3 8 14 12 7 8 6 2 4 6 6 7 9 6 3 4 4 2 5 7 7 7 7 7 7 4 3 3 2 1 1 3 4 5 5 5 6 6 6 7 7 6 6 8 10 11 11 11 11 11 10 10 9 8 7 6 5 4 4 4 3 2 2 1 1 1 1 1 1 2 2 3 3 3 3 3 3 3 3 3 3 3 3 4 4 4 4 4 5 5 6
8 7 8 8 8 9 6 5 13 15 11 10 9 8 8 7 9 10 9 7 4 3 4 3 4 8 8 6 6 7 8 7 6 7 5 3 2 2 2 3 4 5 5 5 5 7 8 7 6 6 7 8 10 11 12 12 12 12 12 11 11 10 9 8 7 6 5 4 4 3 2 2 1 2 1 1 1 1 2 2 2 2 3 3 3 3 3 3 3 2 2 2 3 3 2 1 0
10 9 8 7 7 10 9 7 12 15 12 10 8 7 8 9 12 13 9 7 5 6 7 7 9 12 10 7 6 7 8 8 7 8 8 7 6 5 3 3 3 4 5 4 5 5 6 7 6 7 7 7 8 9 10 11 11 12 12 12 12 11 11 11 11 10 9 9 8 6 6 4 3 3 2 2 1 1 1 1 1 2 2 3 3 3 3 4 4 4 4 3 3 3 3 4 3
6 7 6 7 7 8 10 10 10 10 8 8 7 7 8 8 11 13 11 8 6 7 7 7 11 14 11 8 8 8 9 8 7 7 7 7 7 8 6 4 3 3 4 4 4 5 5 6 5 6 7 7 8 8 8 9 9 9 9 10 10 10 10 10 11 11 11 12 12 13 12 10 9 8 6 4 3 3 3 2 2 2 2 2 2 2 3 3 3 4 4 4 4 4 4 5 5
4 4 5 9 10 8 8 9 7 6 6 5 5 7 8 7 6 8 8 7 7 8 5 3 8 12 10 7 5 5 8 10 8 7 7 5 6 6 6 6 6 4 4 3 4 4 4 5 5 5 5 6 7 7 7 8 8 8 8 8 8 8 8 8 9 9 10 10 10 11 13 13 13 13 13 11 9 7 6 4 3 2 2 2 2 2 2 3 3 3 3 3 4 5 5 5 5
7 7 7 10 11 9 7 6 5 3 4 5 4 4 6 7 4 3 4 5 5 8 7 6 8 10 10 8 5 4 6 10 10 9 8 7 6 5 5 6 7 7 6 5 5 5 5 6 6 5 5 6 6 7 7 7 7 8 8 8 8 7 8 8 7 7 7 7 7 7 8 9 10 11 12 13 13 13 12 10 8 7 5 4 3 2 2 2 3 3 3 3 4 4 5 6 6
9 10 8 7 8 9 7 4 4 3 1 3 4 3 4 6 5 4 3 3 5 9 10 7 7 8 8 7 7 6 5 9 12 11 10 9 7 6 6 6 6 7 7 7 7 7 6 6 6 6 6 7 8 7 7 6 6 7 7 7 7 7 8 8 7 7 6 6 6 6 5 6 7 6 6 8 9 12 14 13 12 11 10 8 7 5 4 3 3 3 2 2 3 4 4 5 6
9 10 8 5 4 6 5 1 2 3 1 1 3 3 4 6 6 5 4 5 7 10 9 6 5 6 5 4 7 7 7 10 13 11 10 9 9 8 8 8 8 7 8 8 8 8 8 7 6 5 5 6 7 6 6 6 6 6 6 7 7 7 7 7 7 7 7 7 6 7 7 6 6 6 5 5 5 7 10 11 12 12 12 11 10 9 8 6 5 5 5 4 4 5 4 4 5
8 7 6 5 3 3 3 1 2 3 1 0 2 4 5 5 5 5 6 7 10 10 8 6 6 6 4 4 5 8 10 12 12 10 8 7 8 8 9 10 9 9 8 8 8 7 7 7 7 5 5 6 6 5 5 5 5 4 4 5 6 6 6 6 6 7 6 7 7 7 7 6 6 6 6 5 5 6 6 7 9 11 12 11 11 11 11 10 9 8 7 7 7 7 6 5 5
7 6 4 4 4 3 1 2 3 2 1 1 3 5 6 5 6 8 8 9 10 8 7 8 8 7 6 6 7 9 13 14 12 11 9 8 8 8 9 10 9 9 8 8 8 7 6 5 5 6 6 7 7 7 6 6 6 6 4 4 4 5 5 5 6 7 6 6 7 7 7 7 7 7 7 7 7 6 6 6 7 10 12 12 10 10 10 10 10 10 9 8 8 8 8 8 7
Height
5791 5792 5794 5795 5796 5797 5798 5800 5801 5802 5804 5805 5807 5809 5811 5811 5812 5813 5814 5815 5816 5817 5817 5819 5819 5820 5820 5820 5820 5821 5821 5822 5823 5824 5824 5823 5823 5823 5822 5821 5821 5820 5819 5818 5818 5817 5816 5814 5813 5811 5810 5809 5809 5809 5808 5808 5808 5807 5806 5805 5805 5804 5804 5804 5803 5803 5803 5802 5802 5801 5801 5801 5800 5800 5800 5799 5799 5799 5798 5798 5798 5798 5797 5797 5797 5797 5796 5795 5794 5793 5794 5797 5799 5800 5799 5799 5800
5787 5789 5790 5792 5793 5794 5795 5797 5798 5800 5802 5803 5805 5807 5809 5810 5810 5812 5813 5814 5815 5816 5816 5816 5817 5817 5817 5818 5819 5820 5821 5821 5822 5822 5822 5821 5821 5821 5820 5819 5818 5818 5817 5816 5815 5814 5813 5812 5811 5809 5808 5807 5807 5806 5806 5805 5805 5804 5803 5802 5802 5802 5801 5801 5801 5801 5800 5800 5799 5799 5799 5799 5798 5798 5798 5797 5797 5797 5796 5796 5795 5795 5795 5794 5794 5794 5793 5792 5792 5793 5794 5796 5796 5796 5796 5796 5798
5784 5786 5788 5789 5791 5792 5793 5795 5796 5798 5800 5801 5804 5806 5807 5808 5809 5811 5812 5812 5813 5814 5814 5815 5815 5816 5817 5818 5819 5819 5819 5820 5820 5820 5820 5820 5819 5818 5818 5817 5816 5815 5814 5814 5813 5812 5811 5810 5808 5807 5806 5805 5804 5803 5803 5802 5801 5801 5800 5800 5799 5799 5799 5799 5798 5798 5798 5797 5797 5797 5797 5797 5797 5796 5796 5795 5795 5794 5794 5794 5793 5793 5793 5792 5792 5791 5791 5791 5791 5792 5793 5794 5794 5794 5794 5795 5796
5781 5783 5785 5787 5789 5790 5791 5793 5794 5796 5798 5800 5802 5804 5805 5807 5808 5809 5810 5811 5812 5813 5813 5814 5815 5816 5817 5818 5818 5818 5818 5818 5818 5818 5818 5818 5817 5816 5815 5815 5814 5813 5812 5811 5810 5809 5808 5807 5806 5804 5803 5802 5801 5800 5799 5798 5798 5798 5797 5797 5797 5797 5796 5796 5796 5795 5795 5795 5795 5795 5795 5794 5794 5794 5794 5793 5793 5792 5792 5792 5791 5791 5791 5791 5790 5789 5789 5790 5789 5790 5791 5793 5793 5792 5792 5793 5794
5779 5781 5783 5785 5787 5788 5790 5792 5793 5795 5797 5799 5801 5803 5804 5806 5807 5807 5808 5809 5810 5811 5813 5814 5815 5816 5817 5817 5817 5817 5817 5816 5816 5816 5816 5816 5815 5814 5813 5813 5812 5811 5810 5809 5807 5806 5805 5804 5802 5801 5800 5799 5798 5797 5796 5796 5795 5795 5795 5795 5795 5795 5794 5794 5793 5793 5793 5793 5793 5792 5792 5792 5792 5792 5791 5791 5790 5790 5790 5790 5789 5789 5789 5789 5788 5788 5788 5788 5787 5788 5791 5791 5790 5789 5790 5791 5792
5777 5779 5781 5783 5785 5787 5789 5791 5793 5795 5797 5799 5801 5802 5803 5804 5806 5806 5807 5808 5809 5811 5812 5814 5814 5815 5815 5816 5816 5815 5815 5815 5814 5814 5814 5813 5813 5812 5811 5810 5809 5808 5807 5806 5804 5803 5802 5801 5799 5798 5797 5796 5795 5794 5793 5793 5793 5793 5793 5793 5793 5792 5792 5792 5791 5791 5791 5791 5790 5790 5790 5790 5790 5789 5789 5789 5788 5788 5788 5788 5788 5788 5787 5787 5787 5787 5787 5787 5787 5787 5789 5790 5788 5787 5788 5788 5788
5775 5778 5780 5782 5784 5786 5788 5790 5792 5795 5797 5799 5800 5801 5802 5804 5805 5806 5807 5808 5809 5811 5812 5813 5813 5814 5814 5814 5814 5814 5814 5813 5813 5812 5812 5811 5810 5809 5808 5807 5806 5805 5804 5803 5801 5800 5799 5798 5796 5795 5794 5793 5792 5791 5791 5791 5791 5791 5791 5791 5791 5790 5790 5790 5790 5789 5789 5789 5789 5788 5788 5788 5788 5787 5787 5786 5786 5786 5786 5786 5786 5786 5786 5786 5786 5786 5786 5787 5786 5785 5787 5788 5786 5785 5785 5785 5785
5774 5776 5778 5781 5783 5786 5788 5791 5793 5795 5797 5799 5800 5801 5802 5804 5805 5806 5807 5808 5809 5810 5811 5812 5812 5813 5813 5813 5813 5813 5812 5812 5811 5810 5809 5808 5807 5806 5805 5804 5803 5802 5801 5799 5798 5797 5796 5795 5793 5792 5791 5790 5790 5789 5789 5789 5789 5789 5789 5789 5789 5788 5788 5788 5787 5787 5787 5787 5786 5786 5786 5786 5786 5786 5785 5785 5785 5785 5785 5785 5785 5785 5785 5785 5785 5785 5786 5786 5785 5784 5784 5786 5785 5784 5784 5783 5783
5773 5775 5778 5781 5783 5786 5789 5791 5793 5795 5797 5798 5800 5801 5802 5803 5804 5805 5807 5808 5808 5809 5810 5811 5811 5811 5811 5812 5811 5811 5810 5810 5809 5808 5807 5805 5804 5803 5802 5801 5800 5799 5798 5796 5795 5794 5793 5792 5791 5790 5789 5788 5788 5787 5787 5787 5787 5787 5787 5787 5786 5786 5786 5785 5785 5785 5785 5785 5785 5784 5784 5784 5784 5784 5783 5783 5783 5783 5784 5784 5784 5784 5784 5784 5784 5784 5785 5785 5784 5783 5782 5783 5784 5783 5782 5783 5783
5773 5775 5778 5780 5783 5786 5788 5791 5793 5794 5796 5798 5800 5801 5802 5803 5804 5805 5806 5807 5807 5808 5809 5809 5809 5809 5809 5809 5809 5809 5808 5807 5806 5805 5804 5803 5802 5801 5800 5798 5797 5796 5795 5794 5793 5792 5791 5790 5788 5787 5787 5786 5786 5785 5785 5785 5785 5785 5785 5784 5784 5784 5784 5783 5783 5783 5783 5783 5783 5782 5782 5782 5782 5782 5782 5782 5782 5782 5783 5783 5783 5783 5783 5783 5783 5783 5783 5783 5783 5782 5781 5781 5782 5782 5782 5781 5781
5773 5775 5777 5780 5782 5785 5788 5790 5792 5794 5796 5798 5799 5800 5801 5802 5803 5804 5805 5806 5806 5807 5808 5808 5808 5807 5807 5807 5807 5806 5805 5804 5803 5802 5801 5800 5799 5798 5797 5796 5795 5794 5793 5792 5790 5789 5788 5787 5786 5785 5785 5784 5784 5784 5784 5783 5783 5783 5783 5783 5782 5782 5782 5781 5781 5782 5782 5781 5781 5781 5781 5781 5781 5781 5781 5781 5782 5782 5782 5782 5782 5783 5782 5782 5782 5782 5781 5782 5782 5781 5780 5778 5779 5782 5782 5780 5779
5773 5775 5777 5779 5781 5784 5786 5789 5791 5793 5795 5797 5798 5800 5801 5801 5802 5804 5804 5805 5806 5806 5806 5806 5806 5805 5805 5805 5804 5803 5803 5802 5801 5800 5799 5798 5797 5796 5795 5794 5793 5792 5791 5790 5788 5787 5786 5785 5784 5783 5783 5782 5782 5782 5782 5782 5781 5781 5781 5781 5780 5780 5780 5780 5780 5780 5780 5780 5779 5779 5779 5780 5780 5780 5781 5781 5781 5781 5781 5781 5782 5782 5782 5781 5781 5781 5780 5780 5780 5780 5780 5777 5777 5780 5781 5779 5778
5773 5775 5776 5779 5781 5783 5785 5788 5790 5792 5794 5796 5798 5799 5800 5801 5802 5803 5804 5805 5805 5805 5804 5804 5804 5803 5803 5802 5802 5801 5800 5799 5799 5798 5797 5796 5795 5794 5793 5793 5792 5790 5789 5788 5786 5785 5784 5784 5783 5781 5781 5781 5780 5780 5780 5780 5780 5779 5779 5779 5779 5778 5778 5778 5778 5778 5778 5778 5778 5778 5778 5779 5779 5779 5780 5780 5781 5781 5781 5781 5781 5781 5781 5780 5780 5780 5779 5778 5779 5779 5779 5777 5776 5778 5778 5777 5778
5774 5775 5776 5779 5781 5783 5785 5787 5790 5792 5794 5796 5797 5799 5800 5801 5802 5802 5803 5804 5803 5803 5802 5802 5802 5801 5801 5800 5799 5798 5798 5797 5796 5795 5795 5794 5793 5793 5792 5791 5790 5788 5787 5786 5785 5783 5782 5782 5781 5780 5779 5779 5778 5778 5778 5778 5777 5777 5777 5777 5777 5777 5777 5777 5777 5777 5777 5778 5777 5777 5777 5778 5778 5779 5779 5780 5780 5780 5780 5780 5780 5780 5779 5779 5779 5779 5779 5778 5778 5778 5778 5777 5775 5776 5776 5776 5777
5776 5777 5778 5780 5782 5784 5786 5788 5790 5792 5794 5796 5797 5799 5800 5801 5801 5802 5802 5802 5801 5801 5801 5801 5801 5800 5799 5798 5797 5796 5795 5794 5794 5794 5793 5793 5792 5792 5791 5790 5788 5787 5786 5784 5783 5782 5781 5780 5779 5778 5777 5777 5776 5776 5776 5776 5775 5775 5775 5775 5775 5775 5776 5776 5777 5777 5777 5777 5776 5776 5776 5777 5777 5778 5778 5779 5779 5779 5779 5779 5779 5779 5778 5778 5778 5778 5779 5779 5778 5777 5777 5776 5775 5774 5774 5775 5776
5778 5779 5781 5782 5784 5786 5788 5789 5791 5792 5794 5796 5797 5798 5799 5800 5800 5800 5800 5800 5800 5800 5800 5799 5799 5799 5798 5797 5796 5795 5794 5793 5793 5792 5792 5792 5791 5790 5790 5788 5787 5785 5784 5783 5781 5780 5779 5778 5777 5776 5775 5775 5774 5774 5774 5774 5774 5774 5774 5774 5774 5774 5775 5775 5776 5776 5776 5776 5775 5775 5775 5776 5776 5777 5777 5778 5778 5778 5778 5778 5778 5777 5777 5776 5776 5777 5779 5779 5778 5777 5776 5775 5774 5773 5773 5774 5775
5780 5781 5782 5784 5786 5787 5788 5789 5791 5792 5794 5795 5797 5797 5798 5799 5799 5799 5799 5799 5799 5799 5799 5798 5798 5797 5797 5796 5795 5794 5793 5792 5792 5792 5791 5791 5790 5789 5788 5787 5785 5784 5783 5781 5780 5778 5777 5776 5775 5774 5773 5773 5772 5772 5772 5772 5772 5772 5772 5772 5773 5773 5774 5774 5775 5775 5775 5775 5774 5774 5774 5775 5775 5776 5776 5777 5777 5777 5777 5777 5776 5776 5775 5775 5775 5776 5778 5778 5777 5776 5776 5775 5774 5773 5773 5773 5774
5781 5782 5783 5785 5786 5787 5788 5789 5791 5793 5794 5795 5796 5796 5797 5798 5798 5799 5799 5799 5799 5798 5798 5797 5797 5796 5796 5795 5794 5793 5792 5792 5792 5791 5791 5790 5790 5788 5787 5785 5784 5783 5781 5780 5778 5776 5775 5774 5773 5772 5772 5771 5770 5770 5770 5770 5770 5770 5770 5771 5771 5772 5772 5773 5774 5774 5774 5774 5773 5773 5773 5774 5774 5775 5775 5775 5776 5776 5776 5775 5775 5775 5774 5774 5774 5775 5777 5778 5777 5776 5775 5775 5774 5773 5773 5773 5773
5782 5782 5783 5785 5786 5787 5788 5790 5792 5793 5794 5795 5795 5796 5796 5797 5798 5798 5798 5798 5798 5798 5797 5797 5796 5796 5795 5794 5794 5793 5792 5792 5791 5791 5790 5790 5789 5787 5785 5784 5783 5781 5780 5778 5776 5775 5774 5773 5772 5771 5770 5769 5769 5768 5768 5768 5768 5768 5769 5769 5770 5771 5771 5772 5773 5773 5773 5773 5772 5772 5772 5772 5773 5774 5774 5774 5775 5775 5774 5774 5774 5773 5773 5773 5773 5774 5775 5777 5777 5776 5775 5774 5774 5773 5773 5773 5772
5782 5783 5784 5785 5786 5788 5789 5791 5792 5793 5794 5794 5795 5796 5796 5797 5797 5798 5798 5798 5798 5798 5797 5797 5796 5795 5795 5794 5793 5793 5792 5792 5791 5791 5790 5789 5788 5786 5785 5783 5781 5780 5778 5777 5775 5774 5772 5771 5771 5770 5769 5768 5767 5767 5767 5767 5767 5767 5767 5768 5768 5769 5770 5771 5771 5772 5772 5772 5771 5771 5771 5771 5772 5773 5773 5773 5773 5773 5773 5773 5773 5773 5773 5772 5772 5773 5774 5775 5776 5776 5775 5774 5773 5773 5773 5772 5772
5782 5783 5784 5786 5787 5789 5790 5791 5792 5793 5794 5795 5795 5796 5797 5797 5797 5798 5798 5798 5797 5797 5797 5796 5796 5795 5795 5794 5794 5793 5793 5792 5792 5791 5790 5789 5787 5786 5784 5782 5781 5779 5777 5775 5774 5772 5771 5770 5769 5768 5767 5766 5766 5766 5766 5765 5765 5765 5766 5766 5767 5767 5768 5769 5770 5771 5771 5771 5770 5770 5770 5770 5771 5772 5772 5772 5772 5772 5772 5772 5772 5772 5772 5771 5771 5772 5772 5774 5775 5775 5775 5774 5773 5773 5773 5772 5772
5783 5784 5785 5787 5789 5790 5792 5792 5793 5794 5795 5796 5796 5797 5797 5798 5798 5798 5798 5797 5797 5797 5797 5796 5796 5796 5795 5795 5794 5794 5793 5793 5792 5791 5790 5789 5787 5786 5784 5782 5780 5778 5776 5774 5773 5771 5770 5769 5768 5767 5765 5764 5764 5764 5764 5764 5764 5763 5764 5765 5765 5766 5767 5768 5769 5769 5770 5770 5769 5769 5769 5769 5770 5770 5771 5770 5770 5771 5770 5770 5771 5771 5771 5771 5770 5771 5771 5772 5773 5774 5774 5773 5773 5773 5773 5772 5772
5784 5786 5787 5789 5791 5792 5793 5793 5794 5795 5796 5796 5797 5798 5798 5798 5798 5798 5798 5798 5798 5798 5798 5797 5797 5797 5796 5796 5795 5794 5794 5793 5792 5791 5790 5789 5788 5786 5784 5782 5780 5778 5776 5774 5772 5770 5769 5767 5766 5764 5763 5761 5761 5761 5761 5761 5761 5761 5762 5763 5763 5764 5765 5766 5767 5768 5768 5768 5768 5768 5768 5768 5769 5769 5769 5769 5769 5769 5770 5770 5770 5770 5770 5770 5770 5770 5770 5771 5772 5772 5772 5772 5772 5772 5772 5772 5771
5786 5788 5789 5791 5792 5793 5794 5795 5795 5796 5797 5798 5798 5799 5799 5799 5799 5799 5799 5800 5800 5799 5799 5798 5798 5798 5797 5797 5796 5795 5794 5794 5793 5792 5791 5790 5788 5786 5784 5782 5780 5778 5776 5774 5772 5770 5768 5766 5764 5762 5760 5758 5757 5757 5757 5758 5758 5759 5760 5761 5761 5762 5763 5764 5765 5766 5766 5766 5767 5767 5767 5767 5768 5768 5768 5768 5768 5768 5769 5769 5769 5770 5770 5769 5769 5769 5770 5770 5771 5771 5771 5771 5771 5771 5771 5771 5771
5789 5791 5792 5793 5794 5795 5796 5797 5797 5798 5798 5799 5799 5800 5800 5801 5801 5800 5800 5800 5801 5801 5800 5800 5799 5799 5799 5798 5797 5796 5796 5795 5793 5792 5791 5790 5788 5787 5785 5783 5781 5779 5776 5774 5771 5769 5767 5764 5762 5760 5758 5757 5755 5755 5755 5755 5756 5757 5758 5759 5760 5761 5762 5763 5764 5764 5765 5765 5765 5766 5766 5766 5767 5767 5768 5767 5766 5767 5768 5768 5769 5769 5769 5768 5768 5768 5769 5769 5770 5770 5770 5770 5770 5770 5770 5770 5770
5793 5794 5794 5795 5796 5797 5798 5799 5799 5799 5800 5800 5800 5801 5801 5802 5802 5802 5802 5802 5802 5802 5801 5801 5801 5800 5800 5799 5798 5797 5796 5795 5794 5792 5791 5790 5788 5787 5785 5783 5781 5779 5776 5773 5770 5768 5766 5764 5762 5759 5757 5756 5754 5753 5753 5753 5754 5755 5756 5758 5759 5760 5762 5762 5763 5763 5764 5764 5764 5765 5765 5765 5766 5766 5767 5766 5766 5766 5767 5767 5768 5768 5768 5767 5767 5767 5767 5768 5768 5769 5769 5769 5769 5769 5769 5769 5769
5796 5797 5797 5798 5799 5800 5800 5801 5801 5801 5802 5802 5801 5802 5803 5803 5804 5804 5804 5803 5803 5803 5803 5803 5802 5802 5801 5800 5799 5798 5797 5796 5794 5793 5791 5790 5789 5787 5785 5784 5782 5779 5776 5773 5771 5768 5765 5763 5761 5758 5756 5755 5754 5752 5752 5752 5753 5754 5755 5756 5758 5759 5761 5761 5761 5762 5763 5763 5763 5764 5764 5765 5765 5766 5766 5765 5765 5765 5765 5766 5766 5767 5766 5766 5766 5766 5766 5766 5766 5767 5768 5768 5768 5768 5768 5768 5768
5799 5800 5800 5801 5801 5802 5803 5803 5804 5804 5804 5804 5803 5803 5804 5805 5805 5805 5805 5805 5805 5805 5804 5804 5803 5803 5802 5801 5800 5799 5798 5797 5796 5794 5793 5791 5790 5788 5786 5784 5782 5779 5777 5774 5771 5768 5765 5763 5760 5758 5756 5755 5753 5752 5752 5752 5752 5753 5754 5755 5757 5758 5759 5760 5760 5760 5761 5762 5762 5763 5763 5764 5764 5765 5765 5764 5764 5764 5764 5765 5765 5765 5765 5765 5765 5765 5765 5765 5765 5766 5767 5767 5768 5768 5768 5768 5768
5803 5803 5803 5804 5804 5805 5805 5805 5806 5806 5805 5805 5805 5805 5806 5806 5807 5807 5807 5807 5806 5806 5806 5805 5805 5804 5803 5802 5801 5800 5799 5798 5797 5795 5794 5792 5791 5789 5787 5785 5782 5780 5777 5775 5772 5769 5766 5763 5760 5758 5756 5754 5753 5752 5752 5752 5752 5752 5753 5754 5755 5757 5758 5758 5759 5759 5760 5761 5761 5762 5762 5763 5763 5764 5764 5764 5763 5763 5763 5763 5764 5764 5764 5764 5764 5764 5764 5764 5765 5765 5766 5766 5767 5767 5767 5767 5767
5806 5807 5807 5807 5807 5807 5808 5808 5807 5807 5807 5806 5807 5807 5807 5807 5808 5808 5808 5808 5808 5808 5807 5806 5806 5805 5804 5803 5802 5801 5800 5799 5798 5796 5795 5793 5791 5789 5787 5785 5783 5780 5778 5776 5773 5770 5767 5764 5761 5759 5757 5755 5754 5753 5752 5752 5752 5752 5753 5754 5755 5756 5757 5757 5757 5758 5759 5759 5760 5761 5761 5762 5762 5762 5763 5763 5762 5762 5762 5763 5763 5763 5763 5764 5764 5764 5764 5764 5764 5765 5765 5766 5766 5766 5766 5766 5766
5810 5810 5810 5810 5810 5810 5810 5810 5809 5809 5808 5808 5809 5809 5808 5809 5809 5809 5810 5810 5810 5809 5809 5808 5806 5805 5804 5804 5803 5802 5801 5800 5799 5797 5795 5794 5792 5790 5788 5786 5784 5781 5779 5777 5774 5771 5768 5765 5762 5760 5758 5756 5755 5754 5753 5753 5752 5753 5753 5754 5755 5756 5756 5757 5757 5757 5758 5759 5759 5760 5760 5761 5761 5761 5762 5762 5762 5762 5762 5762 5762 5762 5762 5763 5763 5764 5764 5763 5763 5764 5764 5765 5765 5765 5765 5765 5765
5813 5812 5812 5812 5812 5812 5812 5812 5811 5811 5810 5810 5810 5811 5810 5810 5810 5810 5811 5811 5811 5810 5809 5809 5807 5806 5805 5804 5803 5803 5802 5801 5800 5798 5796 5794 5793 5791 5789 5787 5785 5783 5780 5778 5775 5772 5769 5767 5764 5761 5759 5757 5756 5755 5755 5754 5754 5754 5754 5754 5755 5755 5756 5756 5757 5757 5758 5758 5758 5759 5759 5760 5760 5760 5761 5761 5761 5761 5761 5761 5761 5761 5761 5761 5762 5763 5763 5763 5763 5763 5764 5764 5764 5764 5764 5764 5764
5815 5815 5815 5815 5814 5814 5814 5814 5814 5813 5812 5811 5812 5812 5812 5811 5811 5812 5812 5812 5812 5811 5810 5809 5808 5807 5805 5805 5804 5803 5802 5802 5800 5799 5798 5796 5794 5792 5790 5788 5786 5784 5782 5779 5777 5774 5771 5769 5766 5763 5761 5759 5758 5757 5757 5756 5755 5755 5755 5755 5755 5756 5756 5757 5757 5757 5757 5758 5758 5758 5759 5759 5759 5759 5760 5760 5760 5760 5760 5760 5760 5760 5760 5760 5761 5762 5762 5763 5763 5763 5763 5763 5763 5763 5763 5763 5763
5817 5817 5817 5817 5816 5816 5816 5815 5815 5815 5814 5813 5813 5814 5814 5813 5813 5814 5814 5813 5813 5812 5811 5810 5809 5808 5806 5805 5804 5804 5803 5802 5801 5800 5799 5797 5795 5794 5792 5790 5788 5786 5784 5781 5779 5776 5774 5771 5768 5766 5764 5762 5760 5759 5758 5757 5757 5757 5756 5756 5756 5757 5757 5757 5757 5757 5757 5758 5758 5758 5758 5758 5759 5759 5759 5759 5759 5759 5759 5759 5760 5760 5760 5760 5760 5761 5762 5762 5762 5763 5763 5763 5763 5763 5763 5763 5762
5819 5819 5819 5819 5818 5818 5818 5817 5817 5816 5816 5815 5815 5815 5815 5815 5815 5816 5816 5815 5814 5813 5812 5811 5810 5809 5807 5806 5805 5804 5804 5803 5802 5801 5800 5798 5797 5795 5793 5791 5790 5788 5786 5783 5781 5779 5776 5773 5771 5769 5767 5765 5763 5761 5760 5759 5759 5758 5758 5758 5758 5757 5757 5757 5758 5758 5758 5758 5758 5758 5758 5758 5758 5758 5758 5758 5758 5759 5759 5759 5759 5759 5759 5759 5760 5760 5761 5761 5761 5762 5762 5762 5762 5762 5762 5762 5761
5821 5821 5821 5821 5820 5820 5819 5819 5818 5818 5817 5817 5817 5816 5816 5816 5817 5817 5817 5817 5815 5814 5813 5812 5811 5810 5808 5807 5806 5805 5804 5804 5803 5802 5801 5799 5798 5796 5794 5793 5791 5789 5788 5785 5783 5781 5778 5776 5774 5771 5769 5767 5765 5764 5762 5761 5760 5760 5760 5759 5759 5759 5759 5759 5758 5758 5758 5758 5758 5758 5757 5757 5757 5757 5758 5758 5758 5758 5758 5758 5759 5759 5759 5759 5759 5759 5760 5760 5761 5761 5762 5762 5762 5762 5762 5762 5761
5823 5823 5822 5822 5822 5822 5821 5821 5820 5820 5819 5819 5818 5817 5817 5817 5817 5818 5818 5818 5816 5815 5814 5812 5811 5810 5809 5807 5806 5805 5805 5804 5804 5803 5802 5801 5799 5798 5796 5794 5793 5791 5790 5787 5785 5783 5781 5779 5776 5774 5772 5770 5768 5766 5765 5763 5762 5762 5761 5761 5761 5760 5760 5760 5759 5759 5758 5758 5758 5758 5757 5757 5757 5757 5757 5757 5758 5758 5758 5758 5758 5758 5758 5758 5759 5759 5759 5759 5760 5760 5761 5762 5762 5762 5762 5762 5761
5825 5824 5824 5824 5823 5823 5823 5823 5822 5821 5821 5820 5819 5818 5818 5818 5818 5819 5819 5818 5817 5815 5814 5813 5812 5811 5809 5808 5806 5806 5805 5805 5805 5804 5803 5802 5800 5799 5797 5796 5795 5793 5791 5789 5787 5785 5783 5781 5779 5777 5775 5773 5771 5769 5768 5766 5765 5764 5763 5763 5762 5761 5761 5760 5760 5760 5759 5759 5758 5758 5758 5757 5757 5757 5757 5757 5757 5757 5757 5757 5757 5758 5758 5758 5758 5758 5758 5759 5759 5760 5760 5761 5761 5761 5761 5761 5761
5826 5825 5825 5824 5824 5824 5824 5824 5824 5823 5822 5822 5821 5820 5819 5819 5820 5820 5819 5819 5818 5816 5815 5814 5812 5811 5809 5808 5807 5806 5806 5806 5806 5805 5804 5803 5802 5800 5799 5798 5796 5795 5793 5791 5789 5787 5785 5783 5781 5780 5778 5776 5774 5773 5771 5769 5768 5766 5765 5764 5763 5763 5762 5761 5761 5761 5760 5760 5759 5759 5759 5758 5757 5757 5757 5757 5757 5757 5757 5757 5757 5757 5757 5757 5758 5758 5758 5758 5759 5759 5760 5760 5761 5761 5760 5760 5760
5827 5826 5826 5825 5825 5825 5825 5825 5825 5825 5824 5823 5823 5821 5821 5821 5821 5821 5820 5820 5819 5817 5816 5815 5813 5812 5810 5809 5808 5807 5807 5807 5807 5806 5805 5804 5803 5801 5800 5799 5797 5796 5794 5792 5791 5789 5787 5785 5784 5782 5780 5779 5777 5776 5774 5772 5771 5769 5768 5767 5766 5765 5764 5763 5762 5762 5761 5761 5760 5760 5760 5759 5758 5758 5758 5757 5757 5757 5757 5757 5757 5757 5757 5757 5757 5757 5757 5758 5758 5759 5760 5760 5760 5760 5760 5760 5760
5827 5828 5827 5827 5826 5826 5826 5826 5826 5826 5825 5824 5824 5823 5822 5822 5822 5822 5821 5821 5820 5818 5817 5816 5814 5813 5811 5810 5809 5809 5808 5808 5807 5806 5806 5804 5803 5802 5801 5800 5799 5797 5796 5794 5792 5790 5789 5787 5786 5784 5783 5781 5780 5778 5777 5775 5774 5772 5771 5770 5768 5767 5766 5765 5764 5763 5762 5762 5761 5761 5761 5760 5760 5759 5758 5758 5757 5757 5757 5757 5757 5757 5757 5757 5757 5757 5757 5757 5758 5759 5759 5759 5760 5760 5760 5759 5759
5828 5828 5828 5828 5828 5827 5827 5827 5826 5826 5826 5825 5825 5824 5824 5824 5823 5823 5822 5821 5820 5819 5818 5816 5815 5814 5812 5812 5811 5810 5809 5808 5808 5807 5806 5805 5804 5803 5802 5801 5799 5798 5797 5795 5793 5792 5790 5789 5787 5786 5785 5783 5782 5780 5779 5778 5776 5775 5774 5772 5771 5770 5768 5767 5766 5765 5764 5763 5763 5762 5762 5761 5760 5760 5759 5759 5758 5758 5757 5757 5757 5757 5757 5757 5757 5757 5757 5757 5758 5758 5758 5759 5759 5759 5759 5759 5759
5828 5829 5829 5829 5829 5828 5828 5828 5828 5827 5827 5826 5826 5826 5826 5825 5824 5824 5823 5822 5821 5820 5818 5817 5816 5814 5814 5813 5812 5811 5810 5809 5809 5808 5807 5805 5804 5803 5802 5801 5800 5799 5798 5796 5795 5793 5792 5790 5789 5788 5786 5785 5784 5782 5781 5780 5779 5777 5776 5775 5774 5772 5771 5770 5769 5767 5766 5765 5764 5764 5763 5762 5761 5760 5760 5759 5759 5758 5758 5757 5757 5757 5757 5757 5757 5757 5757 5757 5757 5758 5758 5758 5758 5759 5759 5758 5758
5829 5829 5829 5829 5829 5829 5829 5829 5829 5828 5828 5827 5827 5826 5827 5826 5825 5824 5824 5823 5821 5820 5819 5817 5816 5815 5814 5814 5813 5812 5811 5810 5809 5808 5807 5806 5805 5804 5803 5802 5801 5800 5798 5797 5796 5794 5793 5792 5790 5789 5788 5787 5785 5784 5783 5782 5781 5779 5778 5777 5776 5775 5773 5772 5771 5770 5769 5768 5767 5765 5764 5763 5762 5762 5761 5760 5759 5759 5758 5758 5757 5757 5757 5757 5757 5757 5757 5757 5757 5757 5757 5757 5758 5758 5758 5758 5757
5830 5830 5830 5830 5830 5830 5830 5830 5830 5829 5829 5828 5827 5827 5827 5827 5826 5825 5824 5824 5822 5821 5819 5818 5816 5816 5815 5814 5814 5813 5812 5811 5810 5809 5808 5807 5805 5804 5803 5802 5801 5800 5799 5797 5796 5795 5794 5792 5791 5790 5789 5788 5786 5785 5784 5783 5782 5781 5780 5779 5778 5777 5776 5774 5773 5772 5771 5770 5769 5767 5766 5765 5764 5763 5762 5761 5761 5760 5759 5758 5758 5757 5757 5757 5757 5757 5756 5757 5757 5757 5757 5757 5757 5756 5756 5756 5756
5831 5830 5830 5830 5830 5830 5830 5830 5830 5830 5829 5828 5828 5828 5828 5827 5826 5825 5825 5824 5823 5821 5820 5818 5817 5816 5816 5815 5814 5813 5813 5812 5811 5810 5808 5807 5806 5805 5804 5803 5802 5801 5799 5798 5797 5796 5794 5793 5792 5791 5789 5788 5787 5786 5785 5784 5783 5782 5781 5780 5779 5778 5777 5776 5775 5774 5773 5772 5770 5769 5768 5767 5766 5765 5764 5763 5762 5761 5760 5759 5759 5758 5757 5757 5757 5756 5756 5756 5756 5756 5756 5756 5755 5755 5755 5754 5754
5831 5831 5831 5831 5831 5830 5830 5830 5830 5830 5830 5829 5828 5829 5829 5828 5827 5826 5825 5824 5823 5822 5820 5819 5817 5817 5816 5816 5815 5814 5813 5812 5811 5810 5809 5807 5806 5805 5804 5803 5802 5801 5800 5798 5797 5796 5795 5793 5792 5791 5790 5789 5788 5787 5785 5784 5783 5783 5782 5781 5780 5779 5778 5777 5776 5775 5774 5773 5771 5770 5769 5769 5768 5767 5766 5765 5764 5763 5762 5761 5760 5759 5758 5758 5757 5757 5756 5756 5756 5755 5755 5755 5754 5754 5753 5753 5753
5831 5831 5831 5831 5831 5831 5831 5831 5831 5831 5830 5829 5829 5830 5829 5828 5827 5826 5826 5824 5823 5822 5821 5819 5818 5817 5817 5816 5815 5814 5813 5812 5812 5811 5809 5808 5807 5806 5805 5803 5802 5801 5800 5799 5797 5796 5795 5794 5793 5792 5790 5789 5788 5787 5786 5785 5783 5783 5782 5781 5780 5779 5779 5778 5777 5776 5774 5773 5772 5772 5771 5770 5769 5768 5767 5766 5765 5764 5763 5762 5761 5760 5759 5759 5758 5758 5757 5756 5756 5755 5755 5754 5754 5753 5753 5752 5752
5832 5832 5832 5832 5832 5831 5831 5831 5831 5831 5831 5830 5831 5831 5830 5829 5828 5827 5826 5825 5823 5822 5821 5820 5819 5818 5817 5816 5816 5815 5814 5812 5811 5811 5810 5808 5807 5806 5805 5804 5802 5802 5800 5799 5797 5796 5795 5794 5793 5792 5791 5790 5788 5787 5786 5785 5784 5782 5782 5781 5780 5779 5778 5777 5777 5776 5775 5774 5773 5772 5771 5771 5770 5769 5768 5767 5766 5766 5765 5763 5762 5761 5761 5760 5759 5758 5757 5757 5756 5756 5755 5754 5754 5753 5753 5752 5752
5833 5833 5833 5832 5832 5832 5832 5832 5832 5832 5831 5831 5831 5831 5830 5830 5829 5828 5827 5825 5824 5823 5822 5821 5820 5819 5818 5817 5816 5815 5814 5812 5811 5810 5810 5808 5807 5806 5805 5803 5802 5802 5801 5799 5798 5797 5795 5794 5793 5792 5791 5790 5789 5787 5786 5785 5784 5783 5781 5780 5780 5779 5778 5777 5776 5775 5775 5774 5773 5772 5772 5771 5770 5769 5768 5768 5767 5766 5765 5765 5764 5762 5761 5760 5759 5758 5758 5757 5756 5756 5755 5754 5754 5753 5752 5752 5751
5833 5833 5833 5833 5833 5833 5832 5832 5832 5832 5832 5831 5831 5831 5831 5830 5830 5829 5828 5826 5824 5823 5822 5821 5820 5820 5818 5817 5815 5815 5814 5812 5811 5810 5809 5808 5807 5806 5805 5803 5802 5801 5800 5799 5798 5797 5796 5795 5793 5792 5791 5790 5789 5788 5786 5785 5784 5783 5782 5780 5779 5778 5777 5776 5776 5775 5774 5774 5773 5772 5772 5771 5770 5769 5769 5768 5767 5766 5765 5765 5764 5763 5762 5761 5760 5759 5758 5757 5756 5756 5755 5754 5753 5753 5752 5751 5751
5833 5833 5833 5833 5833 5833 5832 5832 5832 5832 5832 5832 5832 5832 5831 5831 5830 5829 5828 5826 5825 5824 5822 5821 5821 5820 5818 5817 5815 5814 5813 5812 5810 5809 5808 5808 5807 5806 5804 5803 5802 5801 5800 5799 5798 5797 5796 5795 5794 5792 5791 5790 5789 5788 5787 5785 5784 5783 5782 5781 5779 5778 5777 5776 5775 5774 5774 5773 5772 5772 5771 5770 5770 5769 5768 5768 5767 5766 5765 5764 5763 5763 5762 5761 5760 5759 5758 5757 5756 5755 5754 5753 5753 5752 5751 5750 5750
5833 5833 5833 5833 5833 5833 5832 5833 5832 5832 5832 5832 5832 5832 5831 5831 5830 5829 5828 5827 5825 5824 5823 5822 5821 5820 5818 5817 5815 5813 5812 5811 5809 5808 5807 5806 5805 5805 5804 5802 5801 5800 5799 5798 5798 5797 5796 5795 5794 5792 5791 5790 5789 5788 5787 5785 5784 5783 5782 5781 5779 5778 5777 5776 5775 5774 5773 5772 5772 5771 5770 5769 5769 5768 5768 5767 5766 5765 5764 5764 5763 5762 5761 5760 5759 5758 5757 5756 5755 5754 5754 5753 5752 5751 5750 5749 5748
5833 5833 5833 5833 5833 5833 5833 5833 5833 5832 5832 5832 5832 5831 5831 5831 5830 5829 5828 5826 5825 5824 5822 5821 5820 5818 5817 5816 5814 5813 5811 5810 5809 5807 5806 5805 5804 5803 5802 5802 5801 5800 5799 5798 5797 5797 5796 5795 5794 5792 5791 5790 5789 5788 5787 5786 5785 5783 5782 5781 5780 5779 5778 5777 5776 5775 5774 5773 5771 5770 5769 5768 5768 5767 5766 5766 5765 5764 5763 5762 5762 5761 5760 5759 5758 5757 5756 5755 5754 5753 5752 5752 5751 5750 5749 5748 5747
5833 5833 5833 5833 5833 5833 5833 5833 5832 5832 5832 5832 5831 5831 5830 5830 5829 5828 5827 5825 5824 5823 5821 5820 5818 5817 5816 5815 5813 5812 5811 5810 5808 5807 5805 5804 5803 5802 5801 5801 5800 5799 5799 5798 5797 5796 5795 5794 5793 5792 5791 5790 5789 5788 5787 5786 5785 5784 5782 5781 5780 5779 5778 5777 5776 5775 5774 5773 5772 5770 5769 5768 5767 5766 5765 5765 5764 5763 5762 5761 5760 5759 5758 5757 5756 5755 5754 5754 5753 5752 5751 5750 5749 5748 5748 5747 5746
5834 5833 5833 5833 5833 5833 5833 5832 5832 5832 5831 5831 5831 5831 5830 5829 5828 5827 5825 5824 5823 5822 5820 5818 5816 5815 5813 5813 5812 5812 5810 5809 5808 5806 5805 5803 5802 5801 5800 5800 5799 5798 5798 5797 5797 5796 5795 5794 5793 5792 5791 5790 5789 5788 5787 5786 5785 5784 5782 5781 5780 5779 5777 5776 5775 5774 5773 5772 5771 5770 5769 5768 5766 5765 5764 5763 5763 5762 5761 5760 5759 5758 5757 5756 5755 5754 5753 5752 5751 5750 5749 5749 5748 5747 5746 5745 5744
5833 5833 5833 5833 5832 5832 5832 5832 5832 5831 5831 5830 5830 5830 5829 5828 5827 5826 5825 5823 5822 5821 5819 5817 5815 5814 5812 5811 5811 5811 5810 5808 5807 5806 5804 5803 5801 5800 5799 5799 5798 5797 5797 5797 5796 5796 5795 5794 5793 5792 5791 5790 5789 5788 5787 5786 5785 5784 5782 5781 5780 5779 5777 5776 5775 5774 5773 5772 5771 5770 5769 5767 5766 5765 5763 5762 5761 5760 5759 5759 5758 5756 5755 5754 5753 5752 5751 5750 5749 5748 5747 5746 5745 5745 5744 5743 5742
5833 5833 5833 5833 5832 5832 5831 5831 5831 5830 5830 5829 5829 5828 5828 5827 5826 5825 5824 5823 5821 5819 5818 5816 5814 5813 5812 5810 5810 5809 5809 5808 5806 5805 5804 5802 5801 5799 5799 5798 5797 5797 5796 5796 5795 5795 5794 5793 5792 5791 5790 5789 5788 5787 5786 5785 5784 5783 5781 5780 5779 5778 5777 5776 5774 5773 5772 5771 5770 5769 5767 5766 5765 5764 5763 5761 5760 5759 5758 5757 5756 5755 5754 5752 5751 5750 5749 5748 5747 5746 5745 5744 5743 5742 5741 5741 5740